FW4479 Weather Reports


time (UTC)temp
F
wind
direction
speed
knots
gust
knots
rain 1hr
in
rain 24hr
in
rain mn
in
humidity
%
barometer
mb
20260503050558 38 256 2.6 7.0 0.00 0.00 0.00 60 1015.1
20260503050057 38 242 2.6 5.2 0.00 0.00 0.00 60 1015.0
20260503045556 38 233 1.7 5.2 0.00 0.00 0.00 60 1015.0
20260503045054 38 265 2.6 6.1 0.00 0.00 0.00 60 1015.1
20260503044554 38 237 2.6 7.0 0.00 0.00 0.00 59 1015.1
20260503044053 38 255 2.6 7.0 0.00 0.00 0.00 60 1015.1
20260503043552 38 240 2.6 7.0 0.00 0.00 0.00 59 1015.1
20260503043056 38 316 1.7 7.0 0.00 0.00 0.00 60 1015.2
20260503042552 38 287 2.6 7.0 0.00 0.00 0.00 59 1015.2
20260503042050 38 260 1.7 6.1 0.00 0.00 0.00 59 1015.2
20260503041549 38 267 2.6 6.1 0.00 0.00 0.00 59 1015.2
20260503041050 38 262 0.9 6.1 0.00 0.00 0.00 59 1015.3
20260503040547 38 263 2.6 6.1 0.00 0.00 0.00 59 1015.4
20260503040049 38 283 2.6 6.1 0.00 0.00 0.00 59 1015.4
20260503035545 38 254 1.7 6.1 0.00 0.00 0.00 59 1015.4
20260503035045 38 248 1.7 6.1 0.00 0.00 0.00 59 1015.4
20260503034548 38 264 2.6 5.2 0.00 0.00 0.00 58 1015.3
20260503034045 38 269 0.9 3.5 0.00 0.00 0.00 59 1015.4
20260503033544 38 252 0.9 6.1 0.00 0.00 0.00 58 1015.4
20260503033044 38 250 2.6 7.0 0.00 0.00 0.00 58 1015.5
20260503032544 38 274 3.5 7.0 0.00 0.00 0.00 58 1015.5
20260503032044 39 278 0.9 5.2 0.00 0.00 0.00 58 1015.5
20260503031544 39 264 2.6 6.1 0.00 0.00 0.00 58 1015.5
20260503031044 39 257 2.6 6.1 0.00 0.00 0.00 58 1015.5
20260503030544 39 276 2.6 6.1 0.00 0.00 0.00 58 1015.6
20260503030043 39 279 2.6 6.1 0.00 0.00 0.00 58 1015.5
20260503025543 39 261 3.5 6.1 0.00 0.00 0.00 58 1015.6
20260503025043 39 250 2.6 6.1 0.00 0.00 0.00 58 1015.6
20260503024543 39 262 3.5 7.0 0.00 0.00 0.00 58 1015.6
20260503024045 39 280 2.6 7.0 0.00 0.00 0.00 58 1015.7
20260503023543 39 250 4.3 7.0 0.00 0.00 0.00 58 1015.7
20260503023047 39 263 2.6 5.2 0.00 0.00 0.00 58 1015.8
20260503022542 39 257 1.7 6.1 0.00 0.00 0.00 59 1015.8
20260503022042 39 252 2.6 6.1 0.00 0.00 0.00 58 1015.9
20260503021543 39 282 2.6 7.8 0.00 0.00 0.00 59 1015.9
20260503021043 39 260 3.5 7.8 0.00 0.00 0.00 58 1015.8
20260503020542 39 271 2.6 5.2 0.00 0.00 0.00 58 1015.9
20260503020042 39 295 0.9 5.2 0.00 0.00 0.00 59 1015.9
20260503015544 39 285 2.6 5.2 0.00 0.00 0.00 58 1015.8
20260503015041 39 263 2.6 7.0 0.00 0.00 0.00 58 1015.9
20260503014546 39 255 2.6 9.6 0.00 0.00 0.00 58 1015.8
20260503014041 39 264 3.5 9.6 0.00 0.00 0.00 58 1015.9
20260503013541 39 257 2.6 5.2 0.00 0.00 0.00 58 1015.9
20260503013043 39 278 3.5 5.2 0.00 0.00 0.00 58 1015.9
20260503012540 39 267 2.6 5.2 0.00 0.00 0.00 58 1015.8
20260503012040 39 256 2.6 5.2 0.00 0.00 0.00 58 1015.9
20260503011542 39 271 1.7 4.3 0.00 0.00 0.00 59 1015.9
20260503011044 39 257 1.7 5.2 0.00 0.00 0.00 58 1015.9
20260503010539 39 253 1.7 5.2 0.00 0.00 0.00 58 1016.0
20260503010041 39 242 2.6 7.0 0.00 0.00 0.00 58 1016.0
20260503005538 39 244 2.6 6.1 0.00 0.01 0.00 58 1015.8
20260503005037 39 266 3.5 6.1 0.00 0.01 0.00 58 1015.8
20260503004540 39 269 3.5 6.1 0.00 0.01 0.00 58 1015.6
20260503004039 39 257 2.6 7.8 0.00 0.01 0.00 58 1015.7
20260503003537 39 294 3.5 7.8 0.00 0.01 0.00 57 1015.6
20260503003045 39 290 1.7 7.0 0.00 0.01 0.00 58 1015.6
20260503002536 39 281 3.5 7.8 0.00 0.01 0.00 57 1015.6
20260503002037 39 275 3.5 8.7 0.00 0.01 0.00 57 1015.5
20260503001544 39 257 2.6 8.7 0.00 0.01 0.00 57 1015.4
20260503001037 39 314 2.6 6.1 0.00 0.01 0.00 57 1015.4
20260503000537 40 302 2.6 6.1 0.00 0.01 0.00 57 1015.4
20260503000041 40 280 2.6 8.7 0.00 0.01 0.00 57 1015.4
20260502235536 40 306 4.3 8.7 0.00 0.02 0.00 57 1015.3
20260502235036 40 253 3.5 6.1 0.00 0.02 0.00 57 1015.2
20260502234548 40 258 1.7 7.0 0.00 0.02 0.00 57 1015.2
20260502234036 40 282 3.5 7.0 0.00 0.02 0.00 57 1015.2
20260502233535 40 283 2.6 6.1 0.00 0.02 0.00 57 1015.2
20260502233041 40 289 2.6 7.8 0.00 0.02 0.00 56 1015.1
20260502232533 40 304 3.5 7.8 0.00 0.02 0.00 57 1015.2
20260502232033 40 281 3.5 7.8 0.00 0.02 0.00 57 1015.1
20260502231533 40 301 3.5 7.8 0.00 0.02 0.00 56 1015.1
20260502231033 40 298 4.3 7.8 0.00 0.02 0.00 56 1015.1
20260502230533 41 295 4.3 7.0 0.00 0.02 0.00 55 1015.0
20260502230036 41 299 2.6 7.8 0.00 0.02 0.00 56 1015.0
20260502225532 41 275 3.5 7.8 0.00 0.06 0.00 56 1015.0
20260502225033 41 300 2.6 6.1 0.00 0.06 0.00 56 1015.0
20260502224540 41 319 0.9 4.3 0.00 0.06 0.00 57 1015.0
20260502224034 41 266 0.9 4.3 0.00 0.06 0.00 56 1014.9
20260502223533 41 295 1.7 5.2 0.00 0.06 0.00 55 1014.9
20260502223040 41 311 2.6 7.8 0.00 0.06 0.00 55 1015.0
20260502222530 41 309 3.5 7.8 0.00 0.06 0.00 56 1015.0
20260502222031 41 298 3.5 7.8 0.00 0.06 0.00 55 1015.0
20260502221530 41 318 3.5 7.0 0.00 0.06 0.00 56 1015.1
20260502221033 41 298 4.3 10.4 0.00 0.06 0.00 56 1015.0
20260502220530 41 300 3.5 10.4 0.00 0.06 0.00 55 1014.9
20260502220030 41 298 4.3 10.4 0.00 0.06 0.00 55 1014.9
20260502215530 41 317 4.3 9.6 0.00 0.08 0.00 55 1015.0
20260502215029 41 307 4.3 8.7 0.00 0.08 0.00 55 1015.0
20260502214530 41 318 4.3 7.8 0.00 0.08 0.00 54 1014.8
20260502214033 42 325 4.3 7.8 0.00 0.08 0.00 56 1014.8
20260502213529 42 323 3.5 9.6 0.00 0.08 0.00 55 1014.8
20260502213029 42 326 5.2 11.3 0.00 0.08 0.00 54 1014.7
20260502212529 42 318 6.1 11.3 0.00 0.08 0.00 53 1014.7
20260502212029 42 287 5.2 10.4 0.00 0.08 0.00 53 1014.7
20260502211532 43 271 4.3 10.4 0.00 0.08 0.00 54 1014.7
20260502211028 43 305 4.3 10.4 0.00 0.08 0.00 53 1014.6
20260502210527 43 333 5.2 10.4 0.00 0.08 0.00 53 1014.5
20260502210034 43 299 6.1 9.6 0.00 0.08 0.00 52 1014.6
20260502205527 43 312 6.1 10.4 0.00 0.11 0.00 52 1014.6
20260502205027 43 316 6.1 10.4 0.00 0.11 0.00 52 1014.5
20260502204527 42 324 4.3 11.3 0.00 0.11 0.00 51 1014.6
20260502204027 42 288 3.5 11.3 0.00 0.11 0.00 52 1014.5
20260502203530 42 294 3.5 9.6 0.00 0.11 0.00 50 1014.6
20260502203027 43 301 5.2 8.7 0.00 0.11 0.00 50 1014.6
20260502202526 43 354 3.5 10.4 0.00 0.11 0.00 50 1014.5
20260502202026 43 356 4.3 10.4 0.00 0.11 0.00 50 1014.6
20260502201526 43 319 4.3 8.7 0.00 0.11 0.00 50 1014.6
20260502201026 44 310 5.2 8.7 0.00 0.11 0.00 46 1014.5
20260502200531 44 304 2.6 10.4 0.00 0.11 0.00 45 1014.6
20260502200026 44 297 4.3 10.4 0.00 0.11 0.00 44 1014.6
20260502195526 44 328 5.2 10.4 0.00 0.14 0.00 45 1014.6
20260502195025 44 297 5.2 9.6 0.00 0.14 0.00 45 1014.6
20260502194532 44 301 4.3 10.4 0.00 0.14 0.00 44 1014.7
20260502194025 44 302 7.0 10.4 0.00 0.14 0.00 44 1014.6
20260502193525 45 321 3.5 10.4 0.00 0.14 0.00 47 1014.7
20260502193025 44 291 5.2 10.4 0.00 0.14 0.00 45 1014.6
20260502192525 44 304 3.5 7.8 0.00 0.14 0.00 45 1014.6
20260502192023 44 299 5.2 7.8 0.00 0.14 0.00 43 1014.7
20260502191528 44 309 4.3 7.8 0.00 0.14 0.00 42 1014.7
20260502191028 44 281 3.5 10.4 0.00 0.14 0.00 45 1014.7
20260502190523 45 321 6.1 10.4 0.00 0.14 0.00 45 1014.7
20260502190029 44 306 4.3 9.6 0.00 0.14 0.00 44 1014.7
20260502185522 45 268 4.3 13.0 0.00 0.15 0.00 42 1014.6
20260502185022 45 302 7.8 13.0 0.00 0.15 0.00 43 1014.6
20260502184523 45 311 4.3 9.6 0.00 0.15 0.00 45 1014.6
20260502184022 44 268 6.1 10.4 0.00 0.15 0.00 40 1014.7
20260502183522 45 299 5.2 10.4 0.00 0.15 0.00 43 1014.7
20260502183022 45 299 5.2 10.4 0.00 0.15 0.00 45 1014.7
20260502182521 45 320 5.2 11.3 0.00 0.15 0.00 43 1014.7
20260502182021 45 331 7.8 13.0 0.00 0.15 0.00 43 1014.7
20260502181529 45 304 4.3 10.4 0.00 0.15 0.00 43 1014.6
20260502181020 45 295 5.2 11.3 0.00 0.15 0.00 43 1014.6
20260502180522 45 293 6.1 13.0 0.00 0.15 0.00 41 1014.6
20260502170517 44 278 6.1 13.9 0.00 0.15 0.00 43 1014.4
20260502164015 44 304 4.3 9.6 0.00 0.15 0.00 47 1014.7
20260502163515 45 302 5.2 10.4 0.00 0.15 0.00 43 1014.7
20260502163023 44 283 7.0 12.2 0.00 0.15 0.00 46 1014.8
20260502162515 44 285 6.1 12.2 0.00 0.15 0.00 44 1014.9
20260502162016 45 315 5.2 11.3 0.00 0.15 0.00 46 1014.9
20260502161514 45 325 4.3 13.9 0.00 0.15 0.00 45 1014.9
20260502161013 45 290 7.0 13.9 0.00 0.15 0.00 44 1015.0
20260502160512 44 280 4.3 12.2 0.00 0.15 0.00 47 1014.8
20260502152010 43 312 5.2 13.0 0.00 0.15 0.00 49 1014.9
20260502151524 43 275 7.0 12.2 0.00 0.15 0.00 44 1014.9
20260502151008 43 278 5.2 10.4 0.00 0.15 0.00 48 1014.8
20260502150506 43 240 3.5 11.3 0.00 0.15 0.00 50 1015.0
20260502130554 38 295 4.3 10.4 0.00 0.15 0.00 61 1015.9
20260502123556 37 302 2.6 7.8 0.00 0.15 0.00 64 1015.9
20260502123103 37 250 3.5 7.8 0.00 0.15 0.00 64 1015.8
20260502122551 37 277 2.6 7.8 0.00 0.15 0.00 63 1015.9
20260502122051 37 277 2.6 7.8 0.00 0.15 0.00 64 1015.9
20260502121551 37 251 3.5 7.8 0.00 0.15 0.00 64 1015.9
20260502121051 37 305 3.5 8.7 0.00 0.15 0.00 64 1015.8
20260502120551 36 303 3.5 8.7 0.00 0.15 0.00 64 1015.8
20260502115550 36 278 6.1 10.4 0.00 0.15 0.00 64 1015.8
20260502115049 36 296 3.5 7.0 0.00 0.15 0.00 64 1015.8
20260502114555 36 269 3.5 7.8 0.00 0.15 0.00 64 1015.6
20260502114049 36 307 3.5 7.8 0.00 0.15 0.00 64 1015.6
20260502113549 36 292 2.6 8.7 0.00 0.15 0.00 65 1015.7
20260502113052 36 255 4.3 7.0 0.00 0.15 0.00 64 1015.6
20260502112547 36 249 1.7 7.8 0.00 0.15 0.00 65 1015.7
20260502112047 35 262 3.5 7.8 0.00 0.15 0.00 65 1015.5
20260502111546 35 290 2.6 7.8 0.00 0.15 0.00 65 1015.5
20260502111049 35 265 3.5 7.8 0.00 0.15 0.00 66 1015.4
20260502110546 34 285 2.6 6.1 0.00 0.15 0.00 66 1015.4
20260502110046 34 255 2.6 7.0 0.00 0.15 0.00 66 1015.4
20260502105546 34 237 3.5 7.0 0.00 0.15 0.00 67 1015.3
20260502105046 33 229 3.5 8.7 0.00 0.15 0.00 67 1015.4
20260502104545 33 251 2.6 8.7 0.00 0.15 0.00 67 1015.4
20260502104044 33 246 3.5 7.0 0.00 0.15 0.00 67 1015.2
20260502103546 33 245 2.6 7.0 0.00 0.15 0.00 67 1015.2
20260502103044 33 283 2.6 7.0 0.00 0.15 0.00 68 1015.1
20260502102544 33 254 3.5 7.0 0.00 0.15 0.00 68 1015.1
20260502102046 33 247 3.5 7.0 0.00 0.15 0.00 68 1015.1
20260502101556 33 260 1.7 7.0 0.00 0.15 0.00 68 1015.0
20260502101042 33 275 3.5 6.1 0.00 0.15 0.00 68 1015.1
20260502100541 33 275 2.6 5.2 0.00 0.15 0.00 68 1015.1
20260502100107 33 263 2.6 7.0 0.00 0.15 0.00 68 1015.1
20260502091036 34 269 3.5 7.8 0.00 0.15 0.00 68 1014.5
20260502090532 34 267 3.5 7.8 0.00 0.15 0.00 68 1014.4
20260502071515 37 266 5.2 11.3 0.00 0.15 0.00 65 1013.7
20260502071014 37 221 3.5 10.4 0.00 0.15 0.00 65 1013.6
20260502070514 37 281 3.5 10.4 0.00 0.15 0.00 66 1013.6
20260502070014 38 252 1.7 6.1 0.00 0.15 0.00 66 1013.6
20260502065514 38 272 3.5 8.7 0.00 0.15 0.00 66 1013.6
20260502065012 38 281 5.2 8.7 0.00 0.15 0.00 67 1013.5
20260502064512 38 259 4.3 7.8 0.00 0.15 0.00 67 1013.5
20260502064017 38 277 3.5 9.6 0.00 0.15 0.00 68 1013.7
20260502063510 38 236 2.6 7.0 0.00 0.15 0.00 69 1013.7
20260502063009 38 240 2.6 6.1 0.00 0.15 0.00 70 1013.8
20260502062512 38 297 2.6 5.2 0.00 0.15 0.00 71 1013.8
20260502062007 38 240 0.9 5.2 0.00 0.15 0.00 71 1013.8
20260502061509 38 252 1.7 5.2 0.00 0.15 0.00 72 1014.0
20260502061006 37 259 1.7 4.3 0.00 0.15 0.00 72 1013.9
20260502060505 37 259 0.0 0.0 0.00 0.15 0.00 71 1013.9
20260502060006 37 276 0.0 0.0 0.00 0.15 0.00 70 1013.8
20260502055503 38 276 0.0 0.9 0.00 0.15 0.00 70 1013.7
20260502055003 38 276 0.0 0.9 0.00 0.15 0.00 70 1013.7
20260502054502 38 276 0.0 2.6 0.00 0.15 0.00 70 1013.8
20260502054002 38 276 0.0 4.3 0.00 0.15 0.00 70 1013.9
20260502053600 38 254 1.7 4.3 0.00 0.15 0.00 71 1014.0
20260502053116 39 276 0.0 4.3 0.00 0.15 0.00 71 1014.0
20260502052559 39 239 0.9 6.1 0.00 0.15 0.00 72 1013.9
20260502052102 39 269 2.6 6.1 0.00 0.15 0.00 72 1014.0
20260502051602 39 240 0.9 2.6 0.00 0.15 0.00 72 1014.1
20260502051058 39 301 0.9 3.5 0.00 0.15 0.00 73 1014.0